User: anonymous
Location: Fort Wayne
(41.1310°N, 85.1290°W)
Time: 02:11:30
(UTC-04:00)
Language:

OAO 2 Rocket - Orbit

View from above orbital plane
View from above orbital plane
View from above satellite
View from above satellite

Ground track
Ground track

The orbit data is extracted from the following two-line orbital elements,

1 03598U 68110B   14264.15015507  .00000587  00000-0  14095-3 0  7161
2 03598 034.9932 222.5948 0049099 038.3117 073.8418 14.53696161420833
Epoch (UTC): 21 September 2014 03:36:13
Eccentricity: 0.0049099
inclination: 34.9932°
perigee height: 679 km
apogee height: 748 km
right ascension of ascending node: 222.5948°
argument of perigee: 38.3117°
revolutions per day: 14.53696161
mean anomaly at epoch: 73.8418°
orbit number at epoch: 42083

The dashed part of the orbit path shows where the satellite is in the earth's shadow,  

DLR